Time,TemperatureF,DewpointF,PressureIn,WindDirection,WindDirectionDegrees,WindSpeedMPH,WindSpeedGustMPH,Humidity,HourlyPrecipIn,Conditions,Clouds,dailyrainin,SoftwareType,DateUTC
2013-03-07 00:00:00,44.1,34.9,30.13,North,355,0.0,0.0,70,0.00,CLR,,0.00,WeatherDisplay:10.37,2013-03-07 05:00:00,
2013-03-07 00:05:00,44.0,35.2,30.12,North,355,1.1,1.1,71,0.00,CLR,,0.00,WeatherDisplay:10.37,2013-03-07 05:05:00,
2013-03-07 00:10:00,43.9,34.7,30.12,North,355,0.0,0.0,70,0.00,CLR,,0.00,WeatherDisplay:10.37,2013-03-07 05:10:00,
2013-03-07 00:15:00,43.8,34.6,30.12,North,355,0.0,0.0,70,0.00,CLR,,0.00,WeatherDisplay:10.37,2013-03-07 05:15:00,
2013-03-07 00:20:00,43.7,34.2,30.12,North,355,0.0,0.0,69,0.00,CLR,,0.00,WeatherDisplay:10.37,2013-03-07 05:20:00,
2013-03-07 00:25:00,43.7,34.6,30.12,North,355,3.5,3.5,70,0.00,CLR,,0.00,WeatherDisplay:10.37,2013-03-07 05:25:00,
2013-03-07 00:30:00,43.7,34.6,30.12,North,355,2.3,2.3,70,0.00,CLR,,0.00,WeatherDisplay:10.37,2013-03-07 05:30:00,
2013-03-07 00:35:00,43.7,34.2,30.12,North,355,3.5,3.5,69,0.00,CLR,,0.00,WeatherDisplay:10.37,2013-03-07 05:35:00,
2013-03-07 00:40:00,43.7,34.2,30.12,North,355,2.3,0.0,69,0.00,CLR,,0.00,WeatherDisplay:10.37,2013-03-07 05:40:00,
2013-03-07 00:45:00,43.7,33.8,30.13,NNW,335,3.5,3.5,68,0.00,CLR,,0.00,WeatherDisplay:10.37,2013-03-07 05:45:00,
2013-03-07 00:50:00,43.7,33.8,30.13,North,5,2.0,2.0,68,0.00,CLR,,0.00,WeatherDisplay:10.37,2013-03-07 05:50:00,
2013-03-07 00:55:00,43.7,33.5,30.13,North,9,4.0,4.0,67,0.00,CLR,,0.00,WeatherDisplay:10.37,2013-03-07 05:55:00,
2013-03-07 01:00:00,43.7,33.5,30.13,North,360,1.1,1.1,67,0.00,CLR,,0.00,WeatherDisplay:10.37,2013-03-07 06:00:00,
2013-03-07 01:05:00,43.6,33.7,30.14,North,360,1.1,1.1,68,0.00,CLR,,0.00,WeatherDisplay:10.37,2013-03-07 06:05:00,
2013-03-07 01:10:00,43.5,33.6,30.14,North,11,1.1,1.1,68,0.00,CLR,,0.00,WeatherDisplay:10.37,2013-03-07 06:10:00,
2013-03-07 01:15:00,43.4,33.5,30.14,North,5,2.3,2.3,68,0.00,CLR,,0.00,WeatherDisplay:10.37,2013-03-07 06:15:00,
2013-03-07 01:20:00,43.3,33.4,30.14,North,9,0.0,0.0,68,0.00,CLR,,0.00,WeatherDisplay:10.37,2013-03-07 06:20:00,
2013-03-07 01:25:00,43.2,33.7,30.14,North,9,0.0,0.0,69,0.00,CLR,,0.00,WeatherDisplay:10.37,2013-03-07 06:25:00,
2013-03-07 01:30:00,43.1,33.6,30.14,North,9,0.0,0.0,69,0.00,CLR,,0.00,WeatherDisplay:10.37,2013-03-07 06:30:00,
2013-03-07 01:35:00,42.9,33.4,30.14,North,9,1.1,0.0,69,0.00,CLR,,0.00,WeatherDisplay:10.37,2013-03-07 06:35:00,
2013-03-07 01:40:00,42.8,33.7,30.14,North,9,1.0,1.0,70,0.00,CLR,,0.00,WeatherDisplay:10.37,2013-03-07 06:40:00,
2013-03-07 01:45:00,42.7,33.6,30.14,North,9,1.1,1.1,70,0.00,CLR,,0.00,WeatherDisplay:10.37,2013-03-07 06:45:00,
2013-03-07 01:50:00,42.6,33.5,30.14,North,9,1.1,0.0,70,0.00,CLR,,0.00,WeatherDisplay:10.37,2013-03-07 06:50:00,
2013-03-07 01:55:00,42.5,33.4,30.14,North,9,0.0,0.0,70,0.00,CLR,,0.00,WeatherDisplay:10.37,2013-03-07 06:55:00,
2013-03-07 02:00:00,42.4,33.7,30.14,North,9,1.1,1.1,71,0.00,CLR,,0.00,WeatherDisplay:10.37,2013-03-07 07:00:00,
2013-03-07 02:05:00,42.3,33.6,30.15,North,9,0.0,0.0,71,0.00,CLR,,0.00,WeatherDisplay:10.37,2013-03-07 07:05:00,
2013-03-07 02:10:00,42.1,33.7,30.14,North,9,0.0,0.0,72,0.00,CLR,,0.00,WeatherDisplay:10.37,2013-03-07 07:10:00,
2013-03-07 02:15:00,41.9,33.5,30.14,North,9,1.1,1.1,72,0.00,CLR,,0.00,WeatherDisplay:10.37,2013-03-07 07:15:00,
2013-03-07 02:20:00,41.9,33.9,30.13,North,9,2.0,2.0,73,0.00,CLR,,0.00,WeatherDisplay:10.37,2013-03-07 07:20:00,
2013-03-07 02:25:00,41.8,33.4,30.14,North,9,1.1,1.1,72,0.00,CLR,,0.00,WeatherDisplay:10.37,2013-03-07 07:25:00,
2013-03-07 02:30:00,41.7,33.7,30.14,North,9,0.0,0.0,73,0.00,CLR,,0.00,WeatherDisplay:10.37,2013-03-07 07:30:00,
2013-03-07 02:35:00,41.5,33.1,30.14,North,9,0.0,0.0,72,0.00,CLR,,0.00,WeatherDisplay:10.37,2013-03-07 07:35:00,
2013-03-07 02:40:00,41.2,33.2,30.14,North,9,0.0,0.0,73,0.00,CLR,,0.00,WeatherDisplay:10.37,2013-03-07 07:40:00,
2013-03-07 02:45:00,41.0,34.7,30.14,North,9,0.0,0.0,78,0.00,CLR,,0.00,WeatherDisplay:10.37,2013-03-07 07:45:00,
2013-03-07 02:51:00,40.7,33.1,30.14,North,9,0.0,0.0,74,0.00,CLR,,0.00,WeatherDisplay:10.37,2013-03-07 07:51:00,
2013-03-07 02:56:00,40.6,33.3,30.14,North,9,0.0,0.0,75,0.00,CLR,,0.00,WeatherDisplay:10.37,2013-03-07 07:56:00,
2013-03-07 03:01:00,40.5,33.2,30.14,North,9,0.0,0.0,75,0.00,CLR,,0.00,WeatherDisplay:10.37,2013-03-07 08:01:00,
2013-03-07 03:06:00,40.4,33.1,30.14,North,9,0.0,0.0,75,0.00,CLR,,0.00,WeatherDisplay:10.37,2013-03-07 08:06:00,
2013-03-07 03:11:00,40.2,32.9,30.14,North,9,0.0,0.0,75,0.00,CLR,,0.00,WeatherDisplay:10.37,2013-03-07 08:11:00,
2013-03-07 03:16:00,40.0,32.7,30.14,North,9,0.0,0.0,75,0.00,CLR,,0.00,WeatherDisplay:10.37,2013-03-07 08:16:00,
2013-03-07 03:21:00,39.9,32.9,30.14,North,9,0.0,0.0,76,0.00,CLR,,0.00,WeatherDisplay:10.37,2013-03-07 08:21:00,
2013-03-07 03:26:00,39.8,32.8,30.14,North,9,0.0,0.0,76,0.00,CLR,,0.00,WeatherDisplay:10.37,2013-03-07 08:26:00,
2013-03-07 03:31:00,39.7,32.8,30.14,North,9,0.0,0.0,76,0.00,CLR,,0.00,WeatherDisplay:10.37,2013-03-07 08:31:00,
2013-03-07 03:37:00,39.7,33.1,30.14,North,9,0.0,0.0,77,0.00,CLR,,0.00,WeatherDisplay:10.37,2013-03-07 08:37:00,
2013-03-07 03:42:00,39.6,33.0,30.15,North,9,0.0,0.0,77,0.00,CLR,,0.00,WeatherDisplay:10.37,2013-03-07 08:42:00,
2013-03-07 03:47:00,39.6,33.0,30.14,North,9,0.0,0.0,77,0.00,CLR,,0.00,WeatherDisplay:10.37,2013-03-07 08:47:00,
2013-03-07 03:52:00,39.6,33.0,30.14,North,9,1.1,1.1,77,0.00,CLR,,0.00,WeatherDisplay:10.37,2013-03-07 08:52:00,
2013-03-07 03:57:00,39.7,33.1,30.15,North,9,1.1,0.0,77,0.00,CLR,,0.00,WeatherDisplay:10.37,2013-03-07 08:57:00,
2013-03-07 04:02:00,39.6,33.0,30.15,North,9,0.0,0.0,77,0.00,CLR,,0.00,WeatherDisplay:10.37,2013-03-07 09:02:00,
2013-03-07 04:07:00,39.6,33.0,30.15,North,9,0.0,0.0,77,0.00,CLR,,0.00,WeatherDisplay:10.37,2013-03-07 09:07:00,
2013-03-07 04:12:00,39.5,32.9,30.15,North,9,0.0,0.0,77,0.00,CLR,,0.00,WeatherDisplay:10.37,2013-03-07 09:12:00,
2013-03-07 04:17:00,39.4,33.1,30.15,North,9,1.1,1.1,78,0.00,CLR,,0.00,WeatherDisplay:10.37,2013-03-07 09:17:00,
2013-03-07 04:22:00,39.4,33.1,30.15,North,9,3.5,3.5,78,0.00,CLR,,0.00,WeatherDisplay:10.37,2013-03-07 09:22:00,
2013-03-07 04:27:00,39.4,33.1,30.15,North,5,3.5,3.5,78,0.00,CLR,,0.00,WeatherDisplay:10.37,2013-03-07 09:27:00,
2013-03-07 04:32:00,39.4,33.1,30.15,North,5,2.3,0.0,78,0.00,CLR,,0.00,WeatherDisplay:10.37,2013-03-07 09:32:00,
2013-03-07 04:37:00,39.4,33.1,30.15,North,5,0.0,0.0,78,0.00,CLR,,0.00,WeatherDisplay:10.37,2013-03-07 09:37:00,
2013-03-07 04:42:00,39.3,32.7,30.15,North,355,3.5,3.5,77,0.00,CLR,,0.00,WeatherDisplay:10.37,2013-03-07 09:42:00,
2013-03-07 04:47:00,39.3,32.7,30.15,North,355,0.0,0.0,77,0.00,CLR,,0.00,WeatherDisplay:10.37,2013-03-07 09:47:00,
2013-03-07 04:52:00,39.2,32.6,30.15,North,355,2.3,2.3,77,0.00,CLR,,0.00,WeatherDisplay:10.37,2013-03-07 09:52:00,
2013-03-07 04:57:00,39.2,32.9,30.15,North,355,2.3,0.0,78,0.00,CLR,,0.00,WeatherDisplay:10.37,2013-03-07 09:57:00,
2013-03-07 05:02:00,39.1,32.8,30.15,North,355,1.1,0.0,78,0.00,CLR,,0.00,WeatherDisplay:10.37,2013-03-07 10:02:00,
2013-03-07 05:07:00,39.0,32.7,30.15,North,355,0.0,0.0,78,0.00,CLR,,0.00,WeatherDisplay:10.37,2013-03-07 10:07:00,
2013-03-07 05:12:00,38.9,32.6,30.15,North,355,3.5,3.5,78,0.00,CLR,,0.00,WeatherDisplay:10.37,2013-03-07 10:12:00,
2013-03-07 05:17:00,38.9,32.6,30.16,North,355,1.1,0.0,78,0.00,CLR,,0.00,WeatherDisplay:10.37,2013-03-07 10:17:00,
2013-03-07 05:23:00,38.8,32.5,30.16,North,355,0.0,0.0,78,0.00,CLR,,0.00,WeatherDisplay:10.37,2013-03-07 10:23:00,
2013-03-07 05:28:00,38.7,32.4,30.16,North,355,0.0,0.0,78,0.00,CLR,,0.00,WeatherDisplay:10.37,2013-03-07 10:28:00,
2013-03-07 05:33:00,38.6,32.6,30.17,North,355,2.3,2.3,79,0.00,CLR,,0.00,WeatherDisplay:10.37,2013-03-07 10:33:00,
2013-03-07 05:38:00,38.5,32.6,30.17,North,355,0.0,0.0,79,0.00,CLR,,0.00,WeatherDisplay:10.37,2013-03-07 10:38:00,
2013-03-07 05:43:00,38.4,32.5,30.16,North,355,1.1,1.1,79,0.00,CLR,,0.00,WeatherDisplay:10.37,2013-03-07 10:43:00,
2013-03-07 05:48:00,38.4,32.5,30.16,North,355,0.0,0.0,79,0.00,CLR,,0.00,WeatherDisplay:10.37,2013-03-07 10:48:00,
2013-03-07 05:53:00,38.3,32.4,30.17,North,355,1.1,1.1,79,0.00,CLR,,0.00,WeatherDisplay:10.37,2013-03-07 10:53:00,
2013-03-07 05:58:00,38.2,32.3,30.17,North,355,1.1,1.1,79,0.00,CLR,,0.00,WeatherDisplay:10.37,2013-03-07 10:58:00,
2013-03-07 06:03:00,38.1,32.5,30.17,North,355,0.0,0.0,80,0.00,CLR,,0.00,WeatherDisplay:10.37,2013-03-07 11:03:00,
2013-03-07 06:08:00,38.1,32.5,30.18,North,355,0.0,0.0,80,0.00,CLR,,0.00,WeatherDisplay:10.37,2013-03-07 11:08:00,
2013-03-07 06:13:00,38.0,32.4,30.18,North,355,1.1,1.1,80,0.00,CLR,,0.00,WeatherDisplay:10.37,2013-03-07 11:13:00,
2013-03-07 06:18:00,37.9,32.3,30.18,North,355,0.0,0.0,80,0.00,CLR,,0.00,WeatherDisplay:10.37,2013-03-07 11:18:00,
2013-03-07 06:23:00,37.8,32.2,30.18,North,355,1.1,1.1,80,0.00,CLR,,0.00,WeatherDisplay:10.37,2013-03-07 11:23:00,
2013-03-07 06:28:00,37.7,32.4,30.19,North,5,3.5,3.5,81,0.00,CLR,,0.00,WeatherDisplay:10.37,2013-03-07 11:28:00,
2013-03-07 06:33:00,37.7,32.4,30.18,North,5,2.3,2.3,81,0.00,CLR,,0.00,WeatherDisplay:10.37,2013-03-07 11:33:00,
2013-03-07 06:38:00,37.7,32.4,30.18,North,360,2.3,2.3,81,0.00,CLR,,0.00,WeatherDisplay:10.37,2013-03-07 11:38:00,
2013-03-07 06:43:00,37.6,32.3,30.18,North,5,1.1,1.1,81,0.00,CLR,,0.00,WeatherDisplay:10.37,2013-03-07 11:43:00,
2013-03-07 06:48:00,37.5,32.2,30.18,North,355,2.3,2.3,81,0.00,CLR,,0.00,WeatherDisplay:10.37,2013-03-07 11:48:00,
2013-03-07 06:53:00,37.5,32.2,30.18,North,350,2.3,2.3,81,0.00,CLR,,0.00,WeatherDisplay:10.37,2013-03-07 11:53:00,
2013-03-07 06:58:00,37.4,32.1,30.19,North,355,2.3,2.3,81,0.00,CLR,,0.00,WeatherDisplay:10.37,2013-03-07 11:58:00,
2013-03-07 07:03:00,37.3,32.0,30.19,North,360,2.3,2.3,81,0.00,CLR,,0.00,WeatherDisplay:10.37,2013-03-07 12:03:00,
2013-03-07 07:08:00,37.4,32.1,30.19,NNW,340,3.5,3.5,81,0.00,CLR,,0.00,WeatherDisplay:10.37,2013-03-07 12:08:00,
2013-03-07 07:13:00,37.5,32.2,30.19,North,350,1.1,1.1,81,0.00,CLR,,0.00,WeatherDisplay:10.37,2013-03-07 12:13:00,
2013-03-07 07:18:00,37.6,32.3,30.20,North,355,2.3,2.3,81,0.00,CLR,,0.00,WeatherDisplay:10.37,2013-03-07 12:18:00,
2013-03-07 07:23:00,37.8,32.5,30.20,NNW,337,3.5,3.5,81,0.00,CLR,,0.00,WeatherDisplay:10.37,2013-03-07 12:23:00,
2013-03-07 07:28:00,38.0,32.7,30.20,North,355,3.5,3.5,81,0.00,CLR,,0.00,WeatherDisplay:10.37,2013-03-07 12:28:00,
2013-03-07 07:33:00,38.1,32.5,30.20,North,5,3.0,3.0,80,0.00,CLR,,0.00,WeatherDisplay:10.37,2013-03-07 12:33:00,
2013-03-07 07:38:00,38.3,32.7,30.20,North,360,2.3,2.3,80,0.00,CLR,,0.00,WeatherDisplay:10.37,2013-03-07 12:38:00,
2013-03-07 07:44:00,38.4,32.8,30.20,North,5,2.0,2.0,80,0.00,CLR,,0.00,WeatherDisplay:10.37,2013-03-07 12:44:00,
2013-03-07 07:49:00,38.6,32.6,30.20,North,10,3.5,3.5,79,0.00,CLR,,0.00,WeatherDisplay:10.37,2013-03-07 12:49:00,
2013-03-07 07:54:00,38.8,32.8,30.20,North,355,0.0,0.0,79,0.00,CLR,,0.00,WeatherDisplay:10.37,2013-03-07 12:54:00,
2013-03-07 07:59:00,39.1,33.1,30.21,NNW,347,2.3,2.3,79,0.00,CLR,,0.00,WeatherDisplay:10.37,2013-03-07 12:59:00,
2013-03-07 08:04:00,39.4,33.1,30.20,NNW,345,1.1,1.1,78,0.00,CLR,,0.00,WeatherDisplay:10.37,2013-03-07 13:04:00,
2013-03-07 08:09:00,39.6,33.3,30.20,North,351,2.3,2.3,78,0.00,CLR,,0.00,WeatherDisplay:10.37,2013-03-07 13:09:00,
2013-03-07 08:14:00,39.9,33.6,30.20,North,351,2.3,2.3,78,0.00,CLR,,0.00,WeatherDisplay:10.37,2013-03-07 13:14:00,
2013-03-07 08:19:00,40.5,33.9,30.20,North,351,0.0,0.0,77,0.00,CLR,,0.00,WeatherDisplay:10.37,2013-03-07 13:19:00,
2013-03-07 08:24:00,41.3,34.3,30.20,North,350,1.1,1.1,76,0.00,CLR,,0.00,WeatherDisplay:10.37,2013-03-07 13:24:00,
2013-03-07 08:29:00,42.0,34.6,30.21,North,360,3.5,3.5,75,0.00,CLR,,0.00,WeatherDisplay:10.37,2013-03-07 13:29:00,
2013-03-07 08:34:00,42.9,35.5,30.21,North,349,0.0,0.0,75,0.00,CLR,,0.00,WeatherDisplay:10.37,2013-03-07 13:34:00,
2013-03-07 08:40:00,43.8,35.7,30.21,North,349,0.0,0.0,73,0.00,CLR,,0.00,WeatherDisplay:10.37,2013-03-07 13:40:00,
2013-03-07 08:45:00,44.5,35.7,30.21,North,350,1.1,0.0,71,0.00,CLR,,0.00,WeatherDisplay:10.37,2013-03-07 13:45:00,
2013-03-07 08:50:00,45.1,36.3,30.21,NNW,340,1.1,1.1,71,0.00,CLR,,0.00,WeatherDisplay:10.37,2013-03-07 13:50:00,
2013-03-07 08:55:00,45.6,35.6,30.22,NNW,342,3.5,3.5,68,0.00,CLR,,0.00,WeatherDisplay:10.37,2013-03-07 13:55:00,
2013-03-07 09:00:00,46.1,35.7,30.22,NNW,346,3.0,3.0,67,0.00,CLR,,0.00,WeatherDisplay:10.37,2013-03-07 14:00:00,
2013-03-07 09:05:00,46.3,35.6,30.23,North,355,4.0,4.0,66,0.00,CLR,,0.00,WeatherDisplay:10.37,2013-03-07 14:05:00,
2013-03-07 09:10:00,46.4,35.7,30.23,North,350,3.0,3.0,66,0.00,CLR,,0.00,WeatherDisplay:10.37,2013-03-07 14:10:00,
2013-03-07 09:15:00,46.4,35.7,30.23,NNW,347,1.1,1.1,66,0.00,CLR,,0.00,WeatherDisplay:10.37,2013-03-07 14:15:00,
2013-03-07 09:20:00,46.4,35.7,30.23,NNW,346,2.3,2.3,66,0.00,CLR,,0.00,WeatherDisplay:10.37,2013-03-07 14:20:00,
2013-03-07 09:25:00,46.8,35.3,30.23,NNW,346,3.5,3.5,64,0.00,CLR,,0.00,WeatherDisplay:10.37,2013-03-07 14:25:00,
2013-03-07 09:30:00,47.0,36.2,30.23,NNW,346,1.1,0.0,66,0.00,CLR,,0.00,WeatherDisplay:10.37,2013-03-07 14:30:00,
2013-03-07 09:35:00,47.6,36.0,30.23,NNW,346,3.0,3.0,64,0.00,CLR,,0.00,WeatherDisplay:10.37,2013-03-07 14:35:00,
2013-03-07 09:40:00,48.1,36.9,30.23,NNW,346,1.1,1.1,65,0.00,CLR,,0.00,WeatherDisplay:10.37,2013-03-07 14:40:00,
2013-03-07 09:45:00,48.3,35.0,30.22,NNW,346,2.3,2.3,60,0.00,CLR,,0.00,WeatherDisplay:10.37,2013-03-07 14:45:00,
2013-03-07 09:50:00,48.7,37.5,30.22,NNW,346,1.1,0.0,65,0.00,CLR,,0.00,WeatherDisplay:10.37,2013-03-07 14:50:00,
2013-03-07 09:55:00,49.3,36.4,30.22,NNW,346,1.1,1.1,61,0.00,CLR,,0.00,WeatherDisplay:10.37,2013-03-07 14:55:00,
2013-03-07 10:00:00,49.8,36.5,30.22,NNW,346,1.1,1.1,60,0.00,CLR,,0.00,WeatherDisplay:10.37,2013-03-07 15:00:00,
2013-03-07 10:05:00,50.4,37.9,30.21,NNW,346,2.3,0.0,62,0.00,CLR,,0.00,WeatherDisplay:10.37,2013-03-07 15:05:00,
2013-03-07 10:10:00,51.2,37.4,30.21,NNW,346,0.0,0.0,59,0.00,CLR,,0.00,WeatherDisplay:10.37,2013-03-07 15:10:00,
2013-03-07 10:15:00,51.6,37.7,30.22,NNW,347,1.1,1.1,59,0.00,CLR,,0.00,WeatherDisplay:10.37,2013-03-07 15:15:00,
2013-03-07 10:20:00,51.9,37.1,30.22,NNW,347,2.0,2.0,57,0.00,CLR,,0.00,WeatherDisplay:10.37,2013-03-07 15:20:00,
2013-03-07 10:25:00,52.5,38.1,30.23,NNW,347,0.0,0.0,58,0.00,CLR,,0.00,WeatherDisplay:10.37,2013-03-07 15:25:00,
2013-03-07 10:30:00,52.5,35.8,30.23,NNW,347,1.1,0.0,53,0.00,CLR,,0.00,WeatherDisplay:10.37,2013-03-07 15:30:00,
2013-03-07 10:35:00,52.6,38.2,30.23,NNW,348,3.5,3.5,58,0.00,CLR,,0.00,WeatherDisplay:10.37,2013-03-07 15:35:00,
2013-03-07 10:40:00,53.4,39.0,30.23,NNW,348,1.1,0.0,58,0.00,CLR,,0.00,WeatherDisplay:10.37,2013-03-07 15:40:00,
2013-03-07 10:45:00,54.0,37.7,30.23,NNW,348,0.0,0.0,54,0.00,CLR,,0.00,WeatherDisplay:10.37,2013-03-07 15:45:00,
2013-03-07 10:50:00,54.4,38.1,30.23,North,355,1.1,0.0,54,0.00,CLR,,0.00,WeatherDisplay:10.37,2013-03-07 15:50:00,
2013-03-07 10:55:00,54.5,37.2,30.23,North,355,0.0,0.0,52,0.00,CLR,,0.00,WeatherDisplay:10.37,2013-03-07 15:55:00,
2013-03-07 11:00:00,54.2,36.9,30.22,North,360,0.0,0.0,52,0.00,CLR,,0.00,WeatherDisplay:10.37,2013-03-07 16:00:00,
2013-03-07 11:06:00,54.1,36.9,30.22,North,360,1.1,0.0,52,0.00,CLR,,0.00,WeatherDisplay:10.37,2013-03-07 16:06:00,
2013-03-07 11:11:00,53.8,36.1,30.22,SE,137,3.5,3.5,51,0.00,CLR,,0.00,WeatherDisplay:10.37,2013-03-07 16:11:00,
2013-03-07 11:16:00,54.2,38.4,30.22,North,5,1.1,1.1,55,0.00,CLR,,0.00,WeatherDisplay:10.37,2013-03-07 16:16:00,
2013-03-07 11:21:00,54.5,35.7,30.22,North,355,1.1,1.1,49,0.00,CLR,,0.00,WeatherDisplay:10.37,2013-03-07 16:21:00,
2013-03-07 11:26:00,54.5,37.2,30.21,North,355,0.0,0.1,52,0.00,CLR,,0.00,WeatherDisplay:10.37,2013-03-07 16:26:00,
2013-03-07 11:31:00,54.9,37.6,30.21,North,355,0.0,0.0,52,0.00,CLR,,0.00,WeatherDisplay:10.37,2013-03-07 16:31:00,
2013-03-07 11:36:00,54.9,39.5,30.21,North,355,0.0,0.0,56,0.00,CLR,,0.00,WeatherDisplay:10.37,2013-03-07 16:36:00,
2013-03-07 11:41:00,55.8,39.9,30.21,North,355,3.5,3.5,55,0.00,CLR,,0.00,WeatherDisplay:10.37,2013-03-07 16:41:00,
2013-03-07 11:46:00,56.6,37.6,30.22,North,355,3.5,3.5,49,0.00,CLR,,0.00,WeatherDisplay:10.37,2013-03-07 16:46:00,
2013-03-07 11:51:00,56.7,37.2,30.22,WNW,300,3.0,3.0,48,0.00,CLR,,0.00,WeatherDisplay:10.37,2013-03-07 16:51:00,
2013-03-07 11:56:00,57.0,36.4,30.22,West,274,0.0,0.0,46,0.00,CLR,,0.00,WeatherDisplay:10.37,2013-03-07 16:56:00,
2013-03-07 12:01:00,56.7,36.1,30.22,West,274,1.1,1.1,46,0.00,CLR,,0.00,WeatherDisplay:10.37,2013-03-07 17:01:00,
2013-03-07 12:06:00,56.6,39.7,30.22,WNW,300,2.3,2.3,53,0.00,CLR,,0.00,WeatherDisplay:10.37,2013-03-07 17:06:00,
2013-03-07 12:11:00,57.2,37.7,30.22,NW,323,2.3,2.3,48,0.00,CLR,,0.00,WeatherDisplay:10.37,2013-03-07 17:11:00,
2013-03-07 12:16:00,57.5,36.3,30.22,NW,315,0.0,0.0,45,0.00,CLR,,0.00,WeatherDisplay:10.37,2013-03-07 17:16:00,
2013-03-07 12:21:00,57.4,35.6,30.22,WNW,298,1.1,1.1,44,0.00,CLR,,0.00,WeatherDisplay:10.37,2013-03-07 17:21:00,
2013-03-07 12:26:00,57.2,36.6,30.22,SSW,200,1.1,0.0,46,0.00,CLR,,0.00,WeatherDisplay:10.37,2013-03-07 17:26:00,
2013-03-07 12:31:00,57.4,38.4,30.21,SSW,200,0.0,0.0,49,0.00,CLR,,0.00,WeatherDisplay:10.37,2013-03-07 17:31:00,
2013-03-07 12:36:00,58.0,38.4,30.21,SSW,200,0.0,0.0,48,0.00,CLR,,0.00,WeatherDisplay:10.37,2013-03-07 17:36:00,
2013-03-07 12:41:00,58.6,37.3,30.20,North,349,3.5,3.5,45,0.00,CLR,,0.00,WeatherDisplay:10.37,2013-03-07 17:41:00,
2013-03-07 12:46:00,58.8,39.7,30.20,North,349,0.0,0.0,49,0.00,CLR,,0.00,WeatherDisplay:10.37,2013-03-07 17:46:00,
2013-03-07 12:51:00,59.1,39.9,30.19,North,349,1.1,0.0,49,0.00,CLR,,0.00,WeatherDisplay:10.37,2013-03-07 17:51:00,
2013-03-07 12:56:00,59.2,38.4,30.19,North,355,1.1,1.1,46,0.00,CLR,,0.00,WeatherDisplay:10.37,2013-03-07 17:56:00,
2013-03-07 13:01:00,59.1,37.8,30.19,North,355,1.0,1.0,45,0.00,CLR,,0.00,WeatherDisplay:10.37,2013-03-07 18:01:00,
2013-03-07 13:06:00,59.4,39.7,30.19,North,355,1.1,1.1,48,0.00,CLR,,0.00,WeatherDisplay:10.37,2013-03-07 18:06:00,
2013-03-07 13:11:00,59.5,37.0,30.19,SW,233,3.5,0.0,43,0.00,CLR,,0.00,WeatherDisplay:10.37,2013-03-07 18:11:00,
2013-03-07 13:16:00,59.5,36.4,30.20,NW,317,3.5,3.5,42,0.00,CLR,,0.00,WeatherDisplay:10.37,2013-03-07 18:16:00,
2013-03-07 13:21:00,59.6,38.2,30.19,NW,318,1.1,0.0,45,0.00,CLR,,0.00,WeatherDisplay:10.37,2013-03-07 18:21:00,
2013-03-07 13:26:00,60.3,42.1,30.19,NW,318,0.0,0.5,51,0.00,CLR,,0.00,WeatherDisplay:10.37,2013-03-07 18:26:00,
2013-03-07 13:31:00,61.1,40.1,30.19,North,350,3.5,3.5,46,0.00,CLR,,0.00,WeatherDisplay:10.37,2013-03-07 18:31:00,
2013-03-07 13:36:00,61.8,39.1,30.18,North,355,3.5,3.5,43,0.00,CLR,,0.00,WeatherDisplay:10.37,2013-03-07 18:36:00,
2013-03-07 13:41:00,62.1,39.3,30.18,WSW,238,3.0,3.0,43,0.00,CLR,,0.00,WeatherDisplay:10.37,2013-03-07 18:41:00,
2013-03-07 13:46:00,62.1,38.7,30.17,SW,234,1.1,1.1,42,0.00,CLR,,0.00,WeatherDisplay:10.37,2013-03-07 18:46:00,
2013-03-07 13:51:00,62.5,40.3,30.17,North,355,4.6,4.6,44,0.00,CLR,,0.00,WeatherDisplay:10.37,2013-03-07 18:51:00,
2013-03-07 13:56:00,62.8,41.7,30.17,North,350,4.6,4.6,46,0.00,CLR,,0.00,WeatherDisplay:10.37,2013-03-07 18:56:00,
2013-03-07 14:01:00,63.0,41.3,30.17,North,360,3.5,3.5,45,0.00,CLR,,0.00,WeatherDisplay:10.37,2013-03-07 19:01:00,
2013-03-07 14:06:00,63.3,38.6,30.17,WSW,255,1.1,1.1,40,0.00,CLR,,0.00,WeatherDisplay:10.37,2013-03-07 19:06:00,
2013-03-07 14:11:00,63.5,41.2,30.17,WSW,255,0.0,0.0,44,0.00,CLR,,0.00,WeatherDisplay:10.37,2013-03-07 19:11:00,
2013-03-07 14:16:00,63.6,39.5,30.16,WSW,243,1.1,0.0,41,0.00,CLR,,0.00,WeatherDisplay:10.37,2013-03-07 19:16:00,
2013-03-07 14:21:00,63.6,40.7,30.16,North,355,1.1,0.0,43,0.00,CLR,,0.00,WeatherDisplay:10.37,2013-03-07 19:21:00,
2013-03-07 14:27:00,63.9,41.0,30.16,North,360,0.0,0.0,43,0.00,CLR,,0.00,WeatherDisplay:10.37,2013-03-07 19:27:00,
2013-03-07 14:33:00,64.5,40.3,30.16,North,355,1.1,1.1,41,0.00,CLR,,0.00,WeatherDisplay:10.37,2013-03-07 19:33:00,
2013-03-07 14:38:00,64.6,39.7,30.15,SW,222,3.5,3.5,40,0.00,CLR,,0.00,WeatherDisplay:10.37,2013-03-07 19:38:00,
2013-03-07 14:43:00,64.1,39.3,30.15,SSW,205,1.1,1.1,40,0.00,CLR,,0.00,WeatherDisplay:10.37,2013-03-07 19:43:00,
2013-03-07 14:48:00,64.1,38.6,30.15,WNW,296,1.1,0.0,39,0.00,CLR,,0.00,WeatherDisplay:10.37,2013-03-07 19:48:00,
2013-03-07 14:53:00,64.2,40.6,30.15,NNE,17,3.5,3.5,42,0.00,CLR,,0.00,WeatherDisplay:10.37,2013-03-07 19:53:00,
2013-03-07 14:58:00,64.4,38.9,30.15,West,263,2.3,2.3,39,0.00,CLR,,0.00,WeatherDisplay:10.37,2013-03-07 19:58:00,
2013-03-07 15:20:00,64.6,39.1,30.14,SSE,162,2.0,4.0,39,0.00,CLR,CLR,0.00,WeatherDisplay:10.37,2013-03-07 20:20:00,
2013-03-07 15:30:00,65.2,39.6,30.13,NNW,332,2.0,3.0,39,0.00,CLR,CLR,0.00,WeatherDisplay:10.37,2013-03-07 20:30:00,
2013-03-07 15:40:00,65.4,38.4,30.13,North,0,1.0,3.0,37,0.00,CLR,CLR,0.00,WeatherDisplay:10.37,2013-03-07 20:40:00,
2013-03-07 15:44:00,65.3,41.0,30.13,North,5,3.5,0.0,41,0.00,CLR,,0.00,WeatherDisplay:10.37,2013-03-07 20:44:00,
2013-03-07 15:49:00,65.5,39.9,30.13,North,5,1.2,1.2,39,0.00,CLR,,0.00,WeatherDisplay:10.37,2013-03-07 20:49:00,
2013-03-07 15:54:00,65.3,39.0,30.13,North,5,1.1,1.1,38,0.00,CLR,,0.00,WeatherDisplay:10.37,2013-03-07 20:54:00,
2013-03-07 15:59:00,65.1,40.8,30.14,North,360,1.1,1.1,41,0.00,CLR,,0.00,WeatherDisplay:10.37,2013-03-07 20:59:00,
2013-03-07 16:04:00,65.1,38.2,30.13,North,355,2.3,2.3,37,0.00,CLR,,0.00,WeatherDisplay:10.37,2013-03-07 21:04:00,
2013-03-07 16:09:00,65.3,38.3,30.13,North,355,0.0,0.0,37,0.00,CLR,,0.00,WeatherDisplay:10.37,2013-03-07 21:09:00,
2013-03-07 16:14:00,65.4,39.8,30.13,North,355,1.1,1.1,39,0.00,CLR,,0.00,WeatherDisplay:10.37,2013-03-07 21:14:00,
2013-03-07 16:19:00,65.6,39.3,30.12,North,355,0.0,0.1,38,0.00,CLR,,0.00,WeatherDisplay:10.37,2013-03-07 21:19:00,
2013-03-07 16:24:00,65.5,38.5,30.12,North,355,1.1,0.0,37,0.00,CLR,,0.00,WeatherDisplay:10.37,2013-03-07 21:24:00,
2013-03-07 16:30:00,65.4,39.1,30.12,North,355,1.1,0.0,38,0.00,CLR,,0.00,WeatherDisplay:10.37,2013-03-07 21:30:00,
2013-03-07 16:35:00,65.5,39.9,30.12,North,355,0.0,0.3,39,0.00,CLR,,0.00,WeatherDisplay:10.37,2013-03-07 21:35:00,
2013-03-07 16:40:00,65.6,38.6,30.13,SW,227,2.0,2.0,37,0.00,CLR,,0.00,WeatherDisplay:10.37,2013-03-07 21:40:00,
2013-03-07 16:45:00,65.5,39.9,30.12,North,9,3.0,3.0,39,0.00,CLR,,0.00,WeatherDisplay:10.37,2013-03-07 21:45:00,
2013-03-07 16:50:00,65.5,39.2,30.13,North,11,3.5,3.5,38,0.00,CLR,,0.00,WeatherDisplay:10.37,2013-03-07 21:50:00,
2013-03-07 16:55:00,65.4,40.4,30.13,North,11,0.0,0.0,40,0.00,CLR,,0.00,WeatherDisplay:10.37,2013-03-07 21:55:00,
2013-03-07 17:00:00,65.3,41.6,30.12,North,11,1.1,0.0,42,0.00,CLR,,0.00,WeatherDisplay:10.37,2013-03-07 22:00:00,
2013-03-07 17:05:00,65.1,39.5,30.12,North,11,3.5,3.5,39,0.00,CLR,,0.00,WeatherDisplay:10.37,2013-03-07 22:05:00,
2013-03-07 17:10:00,64.9,39.3,30.12,NNW,338,2.3,0.0,39,0.00,CLR,,0.00,WeatherDisplay:10.37,2013-03-07 22:10:00,
2013-03-07 17:15:00,64.6,39.1,30.12,North,5,3.5,3.5,39,0.00,CLR,,0.00,WeatherDisplay:10.37,2013-03-07 22:15:00,
2013-03-07 17:20:00,64.3,38.1,30.12,North,5,3.5,3.5,38,0.00,CLR,,0.00,WeatherDisplay:10.37,2013-03-07 22:20:00,
2013-03-07 17:25:00,64.0,38.5,30.12,North,5,0.0,0.0,39,0.00,CLR,,0.00,WeatherDisplay:10.37,2013-03-07 22:25:00,
2013-03-07 17:30:00,63.7,39.5,30.13,NNE,15,2.3,2.3,41,0.00,CLR,,0.00,WeatherDisplay:10.37,2013-03-07 22:30:00,
2013-03-07 17:35:00,63.5,38.7,30.13,NNE,13,3.5,3.5,40,0.00,CLR,,0.00,WeatherDisplay:10.37,2013-03-07 22:35:00,
2013-03-07 17:40:00,63.3,39.2,30.12,NNE,13,1.1,1.3,41,0.00,CLR,,0.00,WeatherDisplay:10.37,2013-03-07 22:40:00,
2013-03-07 17:45:00,63.1,39.0,30.13,NNE,16,3.5,3.5,41,0.00,CLR,,0.00,WeatherDisplay:10.37,2013-03-07 22:45:00,
2013-03-07 17:50:00,62.9,38.8,30.14,North,350,4.6,4.6,41,0.00,CLR,,0.00,WeatherDisplay:10.37,2013-03-07 22:50:00,
2013-03-07 17:55:00,62.7,38.6,30.14,North,5,3.5,3.5,41,0.00,CLR,,0.00,WeatherDisplay:10.37,2013-03-07 22:55:00,
2013-03-07 18:00:00,62.4,38.4,30.14,North,360,1.1,0.0,41,0.00,CLR,,0.00,WeatherDisplay:10.37,2013-03-07 23:00:00,
2013-03-07 18:05:00,62.2,38.8,30.14,North,360,1.1,0.0,42,0.00,CLR,,0.00,WeatherDisplay:10.37,2013-03-07 23:05:00,
2013-03-07 18:10:00,62.0,39.2,30.14,North,360,0.0,0.0,43,0.00,CLR,,0.00,WeatherDisplay:10.37,2013-03-07 23:10:00,
2013-03-07 18:15:00,61.7,39.0,30.14,North,360,1.0,1.0,43,0.00,CLR,,0.00,WeatherDisplay:10.37,2013-03-07 23:15:00,
2013-03-07 18:20:00,61.5,39.9,30.14,North,360,0.0,0.0,45,0.00,CLR,,0.00,WeatherDisplay:10.37,2013-03-07 23:20:00,
2013-03-07 18:25:00,61.3,39.8,30.14,North,360,0.0,0.0,45,0.00,CLR,,0.00,WeatherDisplay:10.37,2013-03-07 23:25:00,
2013-03-07 18:30:00,61.0,40.1,30.14,North,360,0.0,0.0,46,0.00,CLR,,0.00,WeatherDisplay:10.37,2013-03-07 23:30:00,
2013-03-07 18:35:00,60.7,40.9,30.14,North,360,0.0,0.0,48,0.00,CLR,,0.00,WeatherDisplay:10.37,2013-03-07 23:35:00,
2013-03-07 18:40:00,60.3,40.0,30.15,North,360,0.0,0.0,47,0.00,CLR,,0.00,WeatherDisplay:10.37,2013-03-07 23:40:00,
2013-03-07 18:45:00,59.9,41.2,30.15,North,360,0.0,0.0,50,0.00,CLR,,0.00,WeatherDisplay:10.37,2013-03-07 23:45:00,
2013-03-07 18:50:00,59.5,41.3,30.15,North,360,0.0,0.1,51,0.00,CLR,,0.00,WeatherDisplay:10.37,2013-03-07 23:50:00,
2013-03-07 18:55:00,59.2,42.1,30.15,North,360,0.0,0.0,53,0.00,CLR,,0.00,WeatherDisplay:10.37,2013-03-07 23:55:00,
2013-03-07 19:00:00,58.8,41.2,30.16,North,360,0.0,0.0,52,0.00,CLR,,0.00,WeatherDisplay:10.37,2013-03-08 00:00:00,
2013-03-07 19:05:00,58.5,41.9,30.16,North,360,0.0,0.0,54,0.00,CLR,,0.00,WeatherDisplay:10.37,2013-03-08 00:05:00,
2013-03-07 19:10:00,58.0,40.5,30.16,North,360,0.0,0.0,52,0.00,CLR,,0.00,WeatherDisplay:10.37,2013-03-08 00:10:00,
2013-03-07 19:15:00,57.4,40.4,30.17,North,360,0.0,0.0,53,0.00,CLR,,0.00,WeatherDisplay:10.37,2013-03-08 00:15:00,
2013-03-07 19:20:00,57.0,40.5,30.17,North,360,0.0,0.0,54,0.00,CLR,,0.00,WeatherDisplay:10.37,2013-03-08 00:20:00,
2013-03-07 19:25:00,56.5,40.5,30.17,North,360,0.0,0.0,55,0.00,CLR,,0.00,WeatherDisplay:10.37,2013-03-08 00:25:00,
2013-03-07 19:30:00,56.1,41.5,30.17,North,360,0.0,0.0,58,0.00,CLR,,0.00,WeatherDisplay:10.37,2013-03-08 00:30:00,
2013-03-07 19:35:00,55.6,41.9,30.18,North,360,0.0,0.0,60,0.00,CLR,,0.00,WeatherDisplay:10.37,2013-03-08 00:35:00,
2013-03-07 19:40:00,55.2,42.0,30.17,North,360,0.0,0.0,61,0.00,CLR,,0.00,WeatherDisplay:10.37,2013-03-08 00:40:00,
2013-03-07 19:45:00,54.9,42.5,30.17,North,360,0.0,0.0,63,0.00,CLR,,0.00,WeatherDisplay:10.37,2013-03-08 00:45:00,
2013-03-07 19:50:00,54.6,43.1,30.17,North,360,0.0,0.0,65,0.00,CLR,,0.00,WeatherDisplay:10.37,2013-03-08 00:50:00,
2013-03-07 19:55:00,54.2,43.1,30.17,North,360,0.0,0.0,66,0.00,CLR,,0.00,WeatherDisplay:10.37,2013-03-08 00:55:00,
2013-03-07 20:00:00,54.0,43.7,30.17,North,360,0.0,0.0,68,0.00,CLR,,0.00,WeatherDisplay:10.37,2013-03-08 01:00:00,
2013-03-07 20:05:00,53.7,44.1,30.18,North,360,0.0,0.0,70,0.00,CLR,,0.00,WeatherDisplay:10.37,2013-03-08 01:05:00,
2013-03-07 20:10:00,53.6,44.4,30.18,North,360,0.0,0.0,71,0.00,CLR,,0.00,WeatherDisplay:10.37,2013-03-08 01:10:00,
2013-03-07 20:15:00,53.2,44.0,30.18,North,360,0.0,0.0,71,0.00,CLR,,0.00,WeatherDisplay:10.37,2013-03-08 01:15:00,
2013-03-07 20:20:00,52.9,44.1,30.19,North,360,0.0,0.0,72,0.00,CLR,,0.00,WeatherDisplay:10.37,2013-03-08 01:20:00,
2013-03-07 20:25:00,52.6,44.5,30.19,North,360,0.0,0.0,74,0.00,CLR,,0.00,WeatherDisplay:10.37,2013-03-08 01:25:00,
2013-03-07 20:30:00,52.4,44.0,30.18,North,360,0.0,0.0,73,0.00,CLR,,0.00,WeatherDisplay:10.37,2013-03-08 01:30:00,
2013-03-07 20:35:00,52.2,44.5,30.19,North,360,0.0,0.0,75,0.00,CLR,,0.00,WeatherDisplay:10.37,2013-03-08 01:35:00,
2013-03-07 20:41:00,52.0,44.3,30.19,North,360,0.0,0.0,75,0.00,CLR,,0.00,WeatherDisplay:10.37,2013-03-08 01:41:00,
2013-03-07 20:46:00,51.9,44.6,30.19,North,360,0.0,0.0,76,0.00,CLR,,0.00,WeatherDisplay:10.37,2013-03-08 01:46:00,
2013-03-07 20:51:00,51.7,44.4,30.19,North,360,0.0,0.0,76,0.00,CLR,,0.00,WeatherDisplay:10.37,2013-03-08 01:51:00,
2013-03-07 20:56:00,51.5,44.5,30.19,North,360,0.0,0.0,77,0.00,CLR,,0.00,WeatherDisplay:10.37,2013-03-08 01:56:00,
2013-03-07 21:01:00,51.2,44.6,30.19,North,360,0.0,0.0,78,0.00,CLR,,0.00,WeatherDisplay:10.37,2013-03-08 02:01:00,
2013-03-07 21:06:00,50.9,44.3,30.19,North,360,0.0,0.0,78,0.00,CLR,,0.00,WeatherDisplay:10.37,2013-03-08 02:06:00,
2013-03-07 21:11:00,50.7,44.1,30.19,North,360,0.0,0.0,78,0.00,CLR,,0.00,WeatherDisplay:10.37,2013-03-08 02:11:00,
2013-03-07 21:16:00,50.6,44.3,30.19,North,360,0.0,0.0,79,0.00,CLR,,0.00,WeatherDisplay:10.37,2013-03-08 02:16:00,
2013-03-07 21:21:00,50.5,44.2,30.19,North,360,0.0,0.0,79,0.00,CLR,,0.00,WeatherDisplay:10.37,2013-03-08 02:21:00,
2013-03-07 21:26:00,50.3,44.4,30.19,North,360,0.0,0.0,80,0.00,CLR,,0.00,WeatherDisplay:10.37,2013-03-08 02:26:00,
2013-03-07 21:31:00,50.1,44.2,30.20,North,360,0.0,0.0,80,0.00,CLR,,0.00,WeatherDisplay:10.37,2013-03-08 02:31:00,
2013-03-07 21:36:00,50.0,44.4,30.19,North,360,0.0,0.0,81,0.00,CLR,,0.00,WeatherDisplay:10.37,2013-03-08 02:36:00,
2013-03-07 21:41:00,49.7,44.1,30.20,North,360,0.0,0.0,81,0.00,CLR,,0.00,WeatherDisplay:10.37,2013-03-08 02:41:00,
2013-03-07 21:46:00,49.5,44.2,30.19,North,360,0.0,0.0,82,0.00,CLR,,0.00,WeatherDisplay:10.37,2013-03-08 02:46:00,
2013-03-07 21:51:00,49.3,44.0,30.19,North,360,0.0,0.0,82,0.00,CLR,,0.00,WeatherDisplay:10.37,2013-03-08 02:51:00,
2013-03-07 21:56:00,49.1,44.2,30.19,North,360,0.0,0.0,83,0.00,CLR,,0.00,WeatherDisplay:10.37,2013-03-08 02:56:00,
2013-03-07 22:01:00,48.9,44.0,30.19,North,360,0.0,0.0,83,0.00,CLR,,0.00,WeatherDisplay:10.37,2013-03-08 03:01:00,
2013-03-07 22:06:00,48.8,43.9,30.19,North,360,0.0,0.0,83,0.00,CLR,,0.00,WeatherDisplay:10.37,2013-03-08 03:06:00,
2013-03-07 22:11:00,48.6,43.7,30.19,North,360,0.0,0.0,83,0.00,CLR,,0.00,WeatherDisplay:10.37,2013-03-08 03:11:00,
2013-03-07 22:16:00,48.5,43.9,30.19,North,360,0.0,0.0,84,0.00,CLR,,0.00,WeatherDisplay:10.37,2013-03-08 03:16:00,
2013-03-07 22:22:00,48.2,43.9,30.20,North,360,0.0,0.0,85,0.00,CLR,,0.00,WeatherDisplay:10.37,2013-03-08 03:22:00,
2013-03-07 22:27:00,48.1,43.8,30.20,North,360,0.0,0.0,85,0.00,CLR,,0.00,WeatherDisplay:10.37,2013-03-08 03:27:00,
2013-03-07 22:32:00,47.9,43.6,30.20,North,360,0.0,0.0,85,0.00,CLR,,0.00,WeatherDisplay:10.37,2013-03-08 03:32:00,
2013-03-07 22:37:00,47.8,43.5,30.20,North,360,0.0,0.0,85,0.00,CLR,,0.00,WeatherDisplay:10.37,2013-03-08 03:37:00,
2013-03-07 22:42:00,47.7,43.4,30.20,North,360,0.0,0.0,85,0.00,CLR,,0.00,WeatherDisplay:10.37,2013-03-08 03:42:00,
2013-03-07 22:47:00,47.6,43.6,30.20,North,360,0.0,0.0,86,0.00,CLR,,0.00,WeatherDisplay:10.37,2013-03-08 03:47:00,
2013-03-07 22:52:00,47.5,43.5,30.19,North,360,0.0,0.0,86,0.00,CLR,,0.00,WeatherDisplay:10.37,2013-03-08 03:52:00,
2013-03-07 22:57:00,47.4,43.4,30.19,North,360,0.0,0.0,86,0.00,CLR,,0.00,WeatherDisplay:10.37,2013-03-08 03:57:00,
2013-03-07 23:02:00,47.3,43.3,30.19,North,360,0.0,0.0,86,0.00,CLR,,0.00,WeatherDisplay:10.37,2013-03-08 04:02:00,
2013-03-07 23:07:00,47.2,43.5,30.19,North,360,0.0,0.0,87,0.00,CLR,,0.00,WeatherDisplay:10.37,2013-03-08 04:07:00,
2013-03-07 23:12:00,47.1,43.1,30.19,North,360,0.0,0.0,86,0.00,CLR,,0.00,WeatherDisplay:10.37,2013-03-08 04:12:00,
2013-03-07 23:17:00,46.9,43.2,30.19,North,360,0.0,0.0,87,0.00,CLR,,0.00,WeatherDisplay:10.37,2013-03-08 04:17:00,
2013-03-07 23:22:00,46.8,43.1,30.19,North,360,0.0,0.0,87,0.00,CLR,,0.00,WeatherDisplay:10.37,2013-03-08 04:22:00,
2013-03-07 23:27:00,46.7,43.3,30.19,North,360,0.0,0.0,88,0.00,CLR,,0.00,WeatherDisplay:10.37,2013-03-08 04:27:00,
2013-03-07 23:32:00,46.6,43.2,30.19,North,360,0.0,0.0,88,0.00,CLR,,0.00,WeatherDisplay:10.37,2013-03-08 04:32:00,
2013-03-07 23:38:00,46.4,43.0,30.19,North,360,0.0,0.0,88,0.00,CLR,,0.00,WeatherDisplay:10.37,2013-03-08 04:38:00,
2013-03-07 23:43:00,46.3,42.9,30.19,North,360,0.0,0.0,88,0.00,CLR,,0.00,WeatherDisplay:10.37,2013-03-08 04:43:00,
2013-03-07 23:48:00,46.2,42.8,30.19,North,360,0.0,0.0,88,0.00,CLR,,0.00,WeatherDisplay:10.37,2013-03-08 04:48:00,
2013-03-07 23:53:00,46.0,42.6,30.19,North,360,0.0,0.0,88,0.00,CLR,,0.00,WeatherDisplay:10.37,2013-03-08 04:53:00,
2013-03-07 23:58:00,45.9,42.5,30.19,North,360,0.0,0.0,88,0.00,CLR,,0.00,WeatherDisplay:10.37,2013-03-08 04:58:00,